THORAD AGENA D DEB, 4653

Orbit data source: Space-Track

THORAD AGENA D DEB, 4653 is space debris in SSO originally from a launch on Wed, 08 Apr 1970 UTC launched from the Air Force Western Test Range (AFWTR). Debris objects in space refer to the collection of defunct objects orbiting the Earth. Examples of debris include non-operational satellites, rocket bodies, and fragments generated from explosions, collisions, or faulty payload assembly.

Loading next visibility...
Identifier
4653, 1970-025AM
Orbit
SSO
Last TLE update
15 hours ago
Origin
Manufacturer
Unknown
Mission
Spacecraft
Bus & Motor
Unknown
Mass
Unknown
Launch date (UTC)
1970-04-08 (55 years ago)
Launch vehicle
Unknown
Launch site
Air Force Western Test Range (AFWTR)
Object type
Payload
Rocket body
Debris
Shape & HBR
Unknown
Radar Cross Section
Small (<0.1 m²)

Expand to show TLE details & history

TLE from 15 hours ago
0 THORAD AGENA D DEB
1 04653U 70025AM  25128.59020324  .00010684  00000-0  24096-2 0  9997
2 04653 100.0051 355.4250 0016963  38.1848 322.0543 14.56463809808100
Epoch: 2025-05-08T14:09Z
Definitive object data (Epoch: 2025-05-08T14:09:53.559Z)
Latitude
0.00002°
Longitude
-83.70668°
Altitude
698.065 km
Speed
7.512 km/s
True Right ascension
23h 41m 41s
True Declination
0° 00' 00"
Sunlit
Object was in daylight at TLE epoch
Visualization TLE readout
Latitude
4.84646°
Longitude
-83.81746°
Altitude
696.726 km
Speed
7.514 km/s
Apparent Right ascension
00h 17m 36s
Apparent Declination
-16° 30' 26"
Sunlit
Object is in daylight
Visualization observer readout
Local Sidereal Time
13:10:09
Azimuth
29.756° NE
Elevation
-63.955°
Doppler factor
1
Orbital elements
Apogee altitude
713.802 km
Perigee altitude
689.783 km
Semi-major axis
7,079.93 km
Eccentricity
0.0016963
Inclination
100.0051°
RAAN
355.425°
Arg. of periapsis
38.1848°
True anomaly
321.93457°
Mean anomaly
322.0543°
Eccentric anomaly
321.99446°
Mean motion
3.64334 °/min
BSTAR
0.0024096
Orbital period
98.81 mins
Loading maneuver chart data...
Loading SW <> Apogee altitude chart data...

THORAD AGENA D DEB Visibility forecast

Observer location: undefined°, undefined°

Span
Click to sort rows by Start time (UTC) header in descending order
Start Az.
Max El. time (UTC)
Max El. Az.
Max El.
End time (UTC)
End Az.
4 mins2025-05-09 05:34:33.089Z326.605° NNW2025-05-09 05:36:33.089Z300.995° NW12.911°2025-05-09 05:38:33.089Z275.228° WNW
7 mins2025-05-09 15:01:33.089Z165.887° S2025-05-09 15:04:33.089Z187.22° SSW44.465°2025-05-09 15:08:33.089Z343.299° N
4 mins2025-05-10 03:03:33.089Z71.659° E2025-05-10 03:05:33.089Z104.312° ESE18.197°2025-05-10 03:07:33.089Z132.843° SE
7 mins2025-05-10 04:39:33.089Z354.576° N2025-05-10 04:42:33.089Z299.047° NW33.919°2025-05-10 04:46:33.089Z224.202° SW
|